Location: Sternwarte Hubelmatt
(47.0367°N, 8.3053°E)
Time: 10:33:09
(UTC+02:00)

First-Move - Pass Details

Date: 28 April 2024
Orbit: 537 x 600 km, 97.7° (Epoch: 25 May)

Event Time Altitude Azimuth Distance (km) Brightness Sun altitude
Rises 04:39:45 0° 16° (NNE) 2,870 ? -14.7°
Reaches altitude 10° 04:41:59 10° 21° (NNE) 1,963 ? -14.4°
Maximum altitude 04:46:11 56° 100° (E) 726 ? -13.9°
Drops below altitude 10° 04:50:20 10° 179° (S) 1,937 ? -13.3°
Enters shadow 04:50:47 - 180° (S) 2,124 ? -13.3°
